#timestamp,LO_Frequency,Hit,StdDev 
1701781215.4,286047012.2,Y
1701781235.2,286047010.8,P
1701781255.1,286047010.1,P
1701781256.0,286047010.1,P
1701781275.8,286047009.3,Y
1701781295.6,286047004.2,P
1701781315.5,286047002.7,N
1701781335.3,286046998.7,N
1701781355.1,286046996.4,N
1701781375.9,286046995.2,N
1701781395.7,286046995.1,N
1701781415.5,286046997.7,N
1701781435.4,286046997.7,N
1701781455.2,286046999.5,N
1701781475.0,286046995.9,N
1701781475.9,286046995.9,N
1701781495.8,286046991.3,N
1701781515.6,286046989.9,N
1701781535.4,286046985.4,Y
1701781555.3,286046986.1,P
1701781575.1,286046986.5,N
1701781595.8,286046986.7,N
1701781615.7,286046984.4,Y
1701781635.5,286046997.5,P
1701781655.3,286046997.6,N
1701781675.2,286046997.5,N
1701781695.9,286046997.0,N
1701781715.7,286046999.4,N
1701781735.6,286047001.9,N
1701781755.4,286047002.6,N
1701781775.2,286047005.7,N
1701781795.1,286047003.0,N
1701781796.0,286047003.0,N
1701781815.8,286047005.5,N
1701781835.6,286047005.4,N
1701781855.5,286047005.6,N
1701781875.3,286047005.0,N
1701781895.1,286047004.9,N
1701781915.9,286047007.1,N
1701781935.7,286047006.3,N
1701781955.5,286047007.6,N
1701781975.4,286047006.6,N
1701781995.2,286047008.8,N
1701782015.0,286047007.1,N
1701782015.9,286047007.1,N
1701782035.8,286047007.2,N
1701782055.6,286047009.2,N
1701782075.4,286047008.7,N
1701782095.3,286047008.2,N
1701782115.1,286047008.0,N
1701782116.0,286047008.0,N
1701782135.8,286047006.1,N
1701782155.7,286047006.3,N
1701782175.5,286047005.1,N
1701782195.3,286047005.7,N
1701782215.2,286047005.9,N
1701782235.9,286047004.8,N
1701782255.7,286047004.5,N
1701782275.6,286047004.6,N
1701782295.4,286047003.3,N
1701782315.2,286047003.6,N
1701782335.1,286047003.0,N
1701782336.0,286047003.0,N
1701782355.8,286047004.9,N
1701782375.6,286047003.3,N
1701782395.5,286047003.4,N
1701782415.3,286047003.8,N
1701782435.1,286047003.1,N
1701782455.9,286047003.2,N
1701782475.7,286047005.4,N
1701782495.5,286047004.6,N
1701782515.4,286047006.7,Y
1701782535.2,286047004.0,P
1701782555.0,286047004.4,P
1701782555.9,286047004.4,P
1701782575.8,286047004.2,Y
1701782595.6,286046999.4,P
1701782615.4,286046997.0,N
1701782635.3,286046996.8,N
1701782655.1,286046995.5,N
1701782656.0,286046995.5,N
1701782675.8,286046997.3,N
1701782695.7,286046996.7,N
1701782715.5,286046998.9,N
1701782735.3,286046996.5,N
1701782755.2,286047000.6,N
1701782775.9,286047000.5,N
1701782795.7,286047002.4,N
1701782815.6,286046998.2,N
1701782835.4,286047000.0,N
1701782855.2,286047002.2,N
1701782875.1,286047001.7,N
1701782876.0,286047001.7,N
1701782895.8,286047003.2,N
1701782915.6,286047003.1,N
1701782935.5,286047005.4,N
1701782955.3,286047005.4,N
1701782975.1,286047004.2,N
1701782995.9,286047003.1,N
1701783015.7,286047004.1,N
1701783035.5,286047004.3,N
1701783055.4,286047001.6,N
1701783075.2,286047006.0,N
1701783095.0,286047006.9,N
1701783095.9,286047006.9,N
1701783115.8,286047005.4,N
1701783135.6,286047006.0,N
1701783155.4,286047001.3,N
1701783175.3,286047004.3,N
1701783195.1,286047001.9,N
1701783196.0,286047001.9,N
1701783215.8,286047004.0,N
1701783235.7,286047001.4,N
1701783255.5,286047003.6,N
1701783275.3,286047003.8,N
1701783295.2,286047005.2,N
1701783315.9,286047008.5,Y
1701783335.7,286047006.0,P
1701783355.6,286047004.0,N
1701783375.4,286047002.8,N
1701783395.2,286047002.8,N
1701783415.1,286047001.1,N
1701783416.0,286047001.1,N
1701783435.8,286046998.8,N
1701783455.6,286047000.0,N
1701783475.5,286047000.6,N
1701783495.3,286046999.7,N
1701783515.1,286047000.9,N
1701783535.9,286047000.6,N
1701783555.7,286046999.7,N
1701783575.5,286047002.7,N
1701783595.4,286047002.1,N
1701783615.2,286047002.8,N
1701783635.0,286047004.2,N
1701783635.9,286047004.2,N
1701783655.8,286047002.9,N
1701783675.6,286047004.8,N
1701783695.4,286047004.8,N
1701783715.3,286047006.8,Y
1701783735.1,286047004.4,P
1701783736.0,286047004.4,P
1701783755.8,286047004.1,P
1701783775.7,286047003.1,Y
1701783795.5,286047001.1,P
1701783815.3,286046998.4,N
1701783835.2,286046998.2,N
1701783855.9,286046999.2,N
1701783875.7,286047000.4,N
1701783895.6,286047001.2,N
1701783915.4,286046998.2,N
1701783935.2,286046996.5,N
1701783955.0,286046997.0,N
1701783956.0,286046997.0,N
1701783975.8,286046997.9,N
1701783995.6,286046995.3,N
1701784015.5,286046998.4,N
1701784035.3,286046999.1,N
1701784055.1,286046998.6,N
1701784075.8,286046998.9,N
1701784095.7,286046998.5,N
1701784115.5,286046998.4,N
1701784135.3,286046998.4,N
1701784155.2,286047001.0,N
1701784175.0,286047000.4,N
1701784175.9,286047000.4,N
1701784195.7,286046999.7,N
1701784215.6,286047002.3,N
1701784235.4,286047005.1,N
1701784255.2,286047007.1,Y
1701784275.1,286047010.1,P
1701784276.0,286047010.1,N
1701784295.8,286047014.0,N
1701784315.7,286047016.7,Y
1701784335.5,286047006.5,P
1701784355.3,286047005.2,P
1701784375.1,286047003.4,N
1701784395.9,286047002.2,N
1701784415.7,286046999.8,N
1701784435.5,286047001.0,N
1701784455.4,286046996.7,N
1701784475.2,286046996.7,N
1701784495.0,286046996.8,N
1701784495.9,286046996.8,N
1701784515.8,286046998.4,N
1701784535.6,286047000.7,N
1701784555.4,286046999.1,N
1701784575.3,286046998.5,N
1701784595.1,286046998.2,N
1701784615.8,286046998.6,N
1701784635.7,286047000.6,N
1701784655.5,286047000.0,N
1701784675.3,286047000.5,N
1701784695.2,286046999.0,N
1701784715.0,286046997.0,N
1701784715.9,286046997.0,N
1701784735.7,286046998.2,N
1701784755.6,286047000.3,N
1701784775.4,286047000.6,N
1701784795.2,286047002.7,N
